Location: Hawaiian Village Mobile Home Park
(32.8359°N, 116.9792°W)
Time: 03:34:20
(UTC+00:00)

ADEOS - Pass Details

Date: 30 November 2021
Orbit: 792 x 795 km, 98.9° (Epoch: 23 January)

Event Time Altitude Azimuth Distance (km) Brightness Sun altitude
Rises 13:05:26 0° 15° (NNE) 3,300 6.8 -17.9°
Reaches altitude 10° 13:07:46 10° 17° (NNE) 2,367 6.1 -17.4°
Maximum altitude 13:13:00 73° 103° (ESE) 830 3.8 -16.3°
Drops below altitude 10° 13:18:10 10° 188° (S) 2,351 6.1 -15.3°
Sets 13:20:30 0° 190° (S) 3,276 6.9 -14.8°
